Greybull, WY

2:01 PM MST on December 11, 2019 (GMT -0700)
South Big Horn County

Weather History for KGEY - October, 2019

Change the Weather History Date:

Wednesday, October 23, 2019

  Actual Average Record
Temperature  
Mean Temperature 39 °F 43 °F  
Max Temperature 46 °F 57 °F 70 °F (1989)
Min Temperature 32 °F 30 °F 20 °F (2006)
Degree Days  
Heating Degree Days 26 22  
Month to date heating degree days 513 401  
Since 1 July heating degree days 688 632  
Cooling Degree Days 0 0  
Month to date cooling degree days 0 0  
Year to date cooling degree days 733 669  
Moisture  
Dew Point 30 °F    
Average Humidity 70    
Maximum Humidity 89    
Minimum Humidity 45    
Precipitation  
Precipitation 0.03 in 0.02 in 0.07 in (2001)
Month to date precipitation 0.61 0.52  
Year to date precipitation 7.93 6.85  
Sea Level Pressure  
Sea Level Pressure 30.23 in    
Wind  
Wind Speed 17 mph ()    
Max Wind Speed 32 mph    
Max Gust Speed 47 mph    
Visibility 10.0 miles    
Events Rain    
T = Trace of Precipitation, MM = Missing Value Source: Averaged Metar Reports

Daily Weather History Graph

Daily Weather History Graph

Search for Another Location

Airport or City:

Astronomy

Oct. 23, 2019 Rise Set
Actual Time 7:37 AM MDT 6:14 PM MDT
Civil Twilight 7:07 AM MDT 6:44 PM MDT
Nautical Twilight 6:33 AM MDT 7:18 PM MDT
Astronomical Twilight 6:00 AM MDT 7:52 PM MDT
Moon 1:42 AM MDT (10/23) 4:22 PM MDT (10/23)
Length of Visible Light 11h 36m
Length of Day
10h 37m
Waning Crescent, 26% of the Moon is Illuminated
Oct 23
Waning Crescent
Oct 27
New
Nov 4
First Quarter
Nov 12
Full
Nov 19
Last Quarter

Hourly Weather History & Observations

Time (MDT) Temp. Windchill Dew Point Humidity Pressure Visibility Wind Dir Wind Speed Gust Speed Precip Events Conditions
12:53 AM 41.0 °F 34.3 °F 33.1 °F 73% 30.00 in 10.0 mi WNW 11.5 mph - N/A   Clear
1:53 AM 37.9 °F 31.5 °F 33.1 °F 83% 30.02 in 10.0 mi West 9.2 mph - N/A   Clear
2:53 AM 37.9 °F 30.0 °F 32.0 °F 79% 30.03 in 10.0 mi West 12.7 mph - N/A   Scattered Clouds
3:53 AM 39.9 °F 33.4 °F 30.0 °F 68% 30.02 in 10.0 mi West 10.4 mph - N/A   Mostly Cloudy
4:53 AM 41.0 °F 30.0 °F 30.0 °F 65% 30.05 in 10.0 mi NW 28.8 mph 43.7 mph N/A   Overcast
5:53 AM 37.9 °F 29.6 °F 33.1 °F 83% 30.08 in 10.0 mi WNW 13.8 mph - 0.01 in   Overcast
6:53 AM 41.0 °F 31.1 °F 30.9 °F 67% 30.09 in 10.0 mi North 23.0 mph 42.6 mph 0.00 in Rain Light Rain
7:48 AM 37.4 °F 25.9 °F 32.0 °F 81% 30.10 in 10.0 mi NW 25.3 mph 38.0 mph 0.00 in Rain Light Rain
7:53 AM 37.0 °F 25.6 °F 32.0 °F 82% 30.15 in 10.0 mi NW 24.2 mph 36.8 mph 0.01 in Rain Light Rain
8:53 AM 37.0 °F 25.1 °F 33.1 °F 86% 30.19 in 10.0 mi NNW 26.5 mph 36.8 mph 0.01 in Rain Light Rain
9:03 AM 37.0 °F 26.7 °F 33.1 °F 86% 30.15 in 10.0 mi NW 19.6 mph 35.7 mph 0.00 in Rain Light Rain
9:53 AM 37.0 °F 25.9 °F 34.0 °F 89% 30.23 in 10.0 mi NW 23.0 mph 28.8 mph 0.00 in Rain Light Rain
10:27 AM 37.0 °F 25.1 °F 32.0 °F 82% 30.19 in 10.0 mi NW 26.5 mph 34.5 mph 0.00 in Rain Light Rain
10:46 AM 37.9 °F 26.1 °F 32.0 °F 79% 30.19 in 10.0 mi NW 27.6 mph 38.0 mph 0.00 in   Mostly Cloudy
10:53 AM 37.9 °F 26.3 °F 32.0 °F 79% 30.25 in 10.0 mi NW 26.5 mph 38.0 mph 0.00 in   Mostly Cloudy
11:53 AM 41.0 °F 30.0 °F 33.1 °F 73% 30.26 in 10.0 mi NNW 28.8 mph 38.0 mph N/A   Mostly Cloudy
12:53 PM 42.1 °F 32.1 °F 33.1 °F 70% 30.27 in 10.0 mi NNW 25.3 mph 34.5 mph 0.00 in Rain Light Rain
1:39 PM 43.0 °F 33.8 °F 32.0 °F 65% 30.23 in 10.0 mi NW 23.0 mph - 0.00 in   Scattered Clouds
1:53 PM 44.1 °F 35.0 °F 30.9 °F 60% 30.28 in 10.0 mi NW 24.2 mph 29.9 mph 0.00 in   Partly Cloudy
2:53 PM 44.1 °F 34.8 °F 26.1 °F 49% 30.30 in 10.0 mi NNW 25.3 mph 33.4 mph N/A   Mostly Cloudy
3:53 PM 43.0 °F 33.8 °F 25.0 °F 49% 30.31 in 10.0 mi North 23.0 mph 32.2 mph N/A   Partly Cloudy
4:53 PM 44.1 °F 35.9 °F 24.1 °F 45% 30.32 in 10.0 mi NNW 19.6 mph 29.9 mph N/A   Partly Cloudy
5:53 PM 42.1 °F 34.2 °F 23.0 °F 47% 30.35 in 10.0 mi NNW 16.1 mph 25.3 mph N/A   Scattered Clouds
6:53 PM 39.0 °F 31.4 °F 25.0 °F 57% 30.38 in 10.0 mi NNW 12.7 mph - N/A   Clear
7:53 PM 37.0 °F 28.5 °F 24.1 °F 59% 30.42 in 10.0 mi NW 13.8 mph - N/A   Clear
8:53 PM 35.1 °F 26.4 °F 24.1 °F 64% 30.44 in 10.0 mi WNW 12.7 mph - N/A   Clear
9:53 PM 34.0 °F 24.2 °F 24.1 °F 67% 30.47 in 10.0 mi WNW 15.0 mph - N/A   Clear
10:53 PM 33.1 °F 24.9 °F 25.0 °F 72% 30.48 in 10.0 mi NW 10.4 mph - N/A   Scattered Clouds
11:53 PM 34.0 °F 24.6 °F 25.0 °F 70% 30.46 in 10.0 mi WNW 13.8 mph - N/A   Overcast